Home   Weather   Kirkland Lake   Past weeks

Flag for Canada Past Weather in Kirkland Lake, Ontario, Canada — Yesterday and Last 2 Weeks

Now
63 °F

Rain. Mostly cloudy.


Feels Like: 63 °F
Forecast: 55 / 66 °F
Wind: 10 mph from South

Location: Earlton

Current Time: Jul 26, 2017 at 11:04:29 am

Latest Report: Jul 26, 2017 at 10:03 am


Visibility: 9 mi

Pressure: 30.01 "Hg

Humidity: 88%

Dew Point: 59 °F

Location of Kirkland LakeLocation

Past Weather in Kirkland Lake — Graph

°F

Kirkland Lake Temperature Yesterday

Maximum temperature yesterday: 77 °F (at 5:00 pm)
Minimum temperature yesterday: 45 °F (at 6:00 am)
Average temperature yesterday: 62 °F

High & Low Weather Summary for the Past Weeks

 TemperatureHumidityPressure
High84 °F (Jul 20, 4:00 pm)100% (Jul 12, 10:53 pm)30.23 "Hg (Jul 12, 10:53 pm)
Low43 °F (Jul 13, 5:06 am)30% (Jul 20, 5:00 pm)29.76 "Hg (Jul 20, 7:00 pm)
Average63 °F73%30.00 "Hg
* Reported Jul 11 9:00 am — Jul 26 9:32 am, Kirkland Lake. Weather by CustomWeather, © 2017

Note: Actual official high and low records may vary slightly from our data, if they occured in-between our weather recording intervals... More about our weather records

Advertising

Kirkland Lake Weather History for the Previous 24 Hours

Scroll right to see more
 ConditionsComfort  
Time TempWeatherWind HumidityBarometerVisibility
9:32 am
Wed, Jul 26
63 °FLight rain. Overcast.10 mph83%30.01 "Hg9 mi
9:10 am64 °FLight rain. Overcast.9 mph78%30.03 "Hg9 mi
8:00 am61 °FBroken clouds.6 mph83%30.03 "Hg9 mi
7:00 am55 °FPartly sunny.9 mph94%30.04 "Hg9 mi
6:00 am54 °FSunny.7 mph88%30.07 "Hg9 mi
5:00 am54 °FClear.6 mph88%30.09 "Hg9 mi
4:00 am54 °FClear.8 mph88%30.09 "Hg9 mi
3:00 am59 °FPassing clouds.8 mph77%30.10 "Hg9 mi
2:00 am57 °FClear.5 mph82%30.12 "Hg9 mi
1:00 am59 °FClear.6 mph82%30.12 "Hg9 mi
12:00 am57 °FClear.7 mph88%30.11 "Hg9 mi
11:00 pm
Tue, Jul 25
59 °FClear.9 mph82%30.11 "Hg9 mi
10:00 pm61 °FClear.9 mph77%30.13 "Hg9 mi
9:00 pm66 °FSunny.9 mph60%30.13 "Hg9 mi
8:00 pm73 °FSunny.9 mph47%30.13 "Hg9 mi
7:00 pm75 °FSunny.12 mph44%30.14 "Hg9 mi
6:00 pm77 °FSunny.12 mph42%30.16 "Hg9 mi
5:26 pm77 °FSunny.12 mph39%30.15 "Hg9 mi
5:00 pm77 °FSunny.12 mph47%30.15 "Hg9 mi
4:00 pm75 °FSunny.10 mph50%30.16 "Hg9 mi
3:00 pm75 °FSunny.7 mph50%30.18 "Hg9 mi
2:00 pm73 °FSunny.7 mph44%30.19 "Hg9 mi
1:00 pm72 °FSunny.9 mph47%30.20 "Hg9 mi
12:00 pm70 °FSunny.2 mph53%30.22 "Hg9 mi
11:00 am68 °FSunny.6 mph64%30.23 "Hg9 mi
Weather by CustomWeather, © 2017

See weather overviewHow to use our weather pages